Location: Miles
(41.4492°N, 81.6087°W)
Time: 22:59:17
(UTC+00:00)

Courier 1B - Pass Details

Date: 14 September 2024
Orbit: 962 x 1208 km, 28.3° (Epoch: 07 October)

Event Time Altitude Azimuth Distance (km) Brightness Sun altitude
Rises 23:05:43 0° 256° (WSW) 4,025 12.7 4.9°
Reaches altitude 10° 23:08:59 10° 245° (WSW) 3,092 11.5 4.3°
Maximum altitude 23:15:08 26° 192° (SSW) 2,145 9.5 3.2°
Drops below altitude 10° 23:21:22 10° 139° (SE) 3,138 9.8 2.0°
Sets 23:24:44 0° 127° (SE) 4,097 10.2 1.4°
